Regional Weather Roundup
Issued by NWS

Home | Current Version | Previous Version | Graphics & Text | Print | Product List | Glossary On
Versions: 1 2 3 4 5 6 7 8 9 10 11 12 13 14 15 16 17 18 19 20 21 22 23 24 25 26 27 28 29 30 31 32 33 34 35 36 37 38 39 40 41 42 43 44 45 46 47 48 49 50
000
ASUS43 KDTX 281001
RWRMI
MICHIGAN HOURLY REGIONAL WEATHER ROUNDUP
NATIONAL WEATHER SERVICE DETROIT/PONTIAC MI
500 AM EST SUN DEC 28 2014

NOTE: "FAIR" INDICATES FEW OR NO CLOUDS BELOW 12,000 FEET WITH NO
SIGNIFICANT WEATHER AND/OR OBSTRUCTION TO VISIBILITY.

MIZ047>049-052>055-059>063-066>070-074>076-081>083-281100-
SOUTHEAST LOWER MICHIGAN

CITY           SKY/WX    TMP DP  RH WIND       PRES   REMARKS
ADRIAN         CLOUDY    35  29  78 NW7       30.04R WCI  29
ALMA           CLOUDY    32  32  97 W6        30.02S WCI  27
ANN ARBOR      CLOUDY    35  30  82 W8        30.01S WCI  29
BAD AXE        CLOUDY    32  28  86 W3        29.98F
CARO           CLOUDY    33  31  91 CALM      29.99S
DETROIT CITY   CLOUDY    38  29  70 NW7       30.01R WCI  33
DETROIT        CLOUDY    36  30  79 W10       30.02R WCI  28
FLINT          CLOUDY    36  32  85 NW7       30.01S WCI  30
GROSSE ILE     CLOUDY    37  30  75 W8        30.00S WCI  31
HILLSDALE      CLOUDY    34  31  89 W8        30.01S WCI  27
HOWELL         CLOUDY    34  32  92 NW5       30.00S WCI  30

CITY           SKY/WX    TMP DP  RH WIND       PRES   REMARKS
JACKSON        CLOUDY    33  30  88 W6        30.01S WCI  28
LAMBERTVILLE   CLOUDY    36  32  87 W3        30.03S
LANSING        CLOUDY    33  31  92 W6        30.02S WCI  28
LAPEER         CLOUDY    34  31  88 NW7       29.99S WCI  28
MASON          LGT SNOW  33  31  92 W5        30.01S WCI  28
MONROE         CLOUDY    36  30  80 W5        30.01R WCI  32
MT. CLEMENS    CLOUDY    37  33  87 W8        29.98R WCI  30
PONTIAC        CLOUDY    34  30  85 W8        29.98S WCI  27
PORT HOPE        N/A     34  24  67 NW6       29.96F WCI  29
PORT HURON     CLOUDY    36  32  87 NW8       29.99S WCI  29
TRI CITIES     CLOUDY    35  29  78 W6        30.01S WCI  30
TROY           CLOUDY    38  31  78 W6        30.02R WCI  33
SAGINAW HB     CLOUDY    34  32  93 W3        30.00S
$$
MIZ043>046-050>051-056>058-064>065-071>073-077>080-281100-
SOUTHWEST LOWER MICHIGAN

CITY           SKY/WX    TMP DP  RH WIND       PRES   REMARKS
BATTLE CREEK   CLOUDY    35  30  82 W7        30.04R WCI  29
BENTON HARBOR  CLOUDY    32  25  75 NW8       30.09S WCI  25
BIG RAPIDS     CLOUDY    32  29  88 W9        30.00S WCI  24
COLDWATER      CLOUDY    33  30  86 W8        30.03S WCI  26
FREMONT        CLOUDY    30  24  79 NW10      30.04R WCI  21
HOLLAND        CLOUDY    34  26  72 NW13G20   30.07S WCI  25
GRAND RAPIDS   CLOUDY    33  28  81 NW10      30.04S WCI  25
IONIA          CLOUDY    34  32  93 W12       30.02S WCI  25
KALAMAZOO      CLOUDY    34  29  82 W10       30.05R WCI  26
LUDINGTON      MOCLDY    30  23  74 NW6       30.06R WCI  24
MARSHALL       LGT SNOW  32  31  96 W6        30.03R WCI  26
MOUNT PLEASANT CLOUDY    32  31  93 CALM      30.00S
MUSKEGON       CLOUDY    32  24  72 NW8       30.06S WCI  25
SOUTH HAVEN    CLOUDY    34  25  70 NW12      30.08R WCI  25
$$
MIZ016>042-281100-
NORTHERN LOWER MICHIGAN

CITY           SKY/WX    TMP DP  RH WIND       PRES   REMARKS
ALPENA         CLOUDY    30  23  75 W5        29.95F WCI  25
BEAVER ISLAND  PTCLDY    25  19  76 W7        29.98S WCI  17
BELLAIRE       CLOUDY    32  22  68 W6        29.99S WCI  26
CADILLAC       CLOUDY    27  21  77 W9G18     29.96F WCI  18
CHARLEVOIX     CLOUDY    29  24  81 W15       30.01R WCI  18
FRANKFORT      MOCLDY    28  20  73 NW9       30.03S WCI  19
GAYLORD        CLOUDY    28  22  78 W9        29.92F WCI  19
GRAYLING       CLOUDY    31  27  86 W9        29.95F WCI  23
HARBOR SPRINGS CLOUDY    29  21  71 W14G20    29.96S WCI  19
HOUGHTON LAKE  FLURRIES  30  26  85 W13       29.95F WCI  20
MANISTEE       CLOUDY    30  19  64 NW12G20   30.04S WCI  21
OSCODA         CLOUDY    31  27  85 CALM      29.95F
PELLSTON       CLOUDY    28  21  75 W13       29.97R WCI  17
ROGERS CITY    PTCLDY    28  23  80 W3        29.95F
TRAVERSE CITY  CLOUDY    31  22  69 W12       29.99F WCI  22
$$
MIZ007>008-015-281100-
EASTERN UPPER MICHIGAN

CITY           SKY/WX    TMP DP  RH WIND       PRES   REMARKS
KINROSS        CLOUDY    27  23  86 W12       29.92S WCI  16
MACKINAC ISLAN CLEAR     26  19  75 W10       29.95R WCI  17
NEWBERRY       MOCLDY    19  17  92 W8        29.93S WCI   9
S. S. MARIE    MOCLDY    28  20  71 W10       29.89F WCI  19
MUNISING         N/A     21  13  71 SW7       29.95F WCI  12
$$
MIZ004>006-011>014-085-281100-
CENTRAL UPPER MICHIGAN

CITY           SKY/WX    TMP DP  RH WIND       PRES   REMARKS
MANISTIQUE     PTCLDY    20  17  89 W7        29.97S WCI  11
ESCANABA       CLEAR     18  12  79 W10       29.98F WCI   6
MENOMINEE      CLEAR     19  12  73 W3        30.02F
SAWYER-GWINN   CLEAR     13  10  89 W5        29.93S WCI   5
$$
MIZ001>003-009>011-084-281100-
WESTERN UPPER MICHIGAN

CITY           SKY/WX    TMP DP  RH WIND       PRES   REMARKS
IRON MOUNTAIN    N/A     14   9  80 W6        29.96S WCI   5
HOUGHTON       LGT SNOW  21  16  81 NW17      29.92R WCI   7
COPPER HARBOR    N/A     25  19  78 N21G28    29.93S WCI  11
IRONWOOD       CLOUDY    16  12  86 W9        29.96S WCI   4
$$

ABBREVIATIONS USED IN REMARKS
   TC - TEMPERATURE IN CELSIUS
  WCI - WIND CHILL INDEX
   HX - HEAT INDEX
  VSB - VISIBILITY




USA.gov is the U.S. government's official web portal to all federal, state and local government web resources and services.